Year,Month,Day,Hour,Minute,Value (Times are PST for temperature in C)
2013,11,16,08,14,6.20
2013,11,16,08,15,6.30
2013,11,16,08,16,6.30
2013,11,16,08,17,6.30
2013,11,16,08,18,6.30
2013,11,16,08,19,6.30
2013,11,16,08,20,6.30
2013,11,16,08,21,6.30
2013,11,16,08,22,6.40
2013,11,16,08,23,6.40
2013,11,16,08,24,6.40
2013,11,16,08,25,6.40
2013,11,16,08,26,6.40
2013,11,16,08,27,6.40
2013,11,16,08,28,6.50
2013,11,16,08,29,6.50
2013,11,16,08,30,6.50
2013,11,16,08,31,6.60
2013,11,16,08,32,6.60
2013,11,16,08,33,6.60
2013,11,16,08,34,6.60
2013,11,16,08,35,6.70
2013,11,16,08,36,6.70
2013,11,16,08,37,6.70
2013,11,16,08,38,6.80
2013,11,16,08,39,6.80
2013,11,16,08,40,6.80
2013,11,16,08,41,6.90
2013,11,16,08,42,6.90
2013,11,16,08,43,6.90
2013,11,16,08,44,6.90
2013,11,16,08,45,6.90
2013,11,16,08,46,7.00
2013,11,16,08,47,7.00
2013,11,16,08,48,7.00
2013,11,16,08,49,7.00
2013,11,16,08,50,7.00
2013,11,16,08,51,7.00
2013,11,16,08,52,7.10
2013,11,16,08,53,7.10
2013,11,16,08,54,7.10
2013,11,16,08,55,7.10
2013,11,16,08,56,7.10
2013,11,16,08,57,7.10
2013,11,16,08,58,7.10
2013,11,16,08,59,7.10
2013,11,16,09,00,7.10
2013,11,16,09,01,7.10
2013,11,16,09,02,7.10
2013,11,16,09,03,7.10
2013,11,16,09,04,7.10
2013,11,16,09,05,7.10
2013,11,16,09,06,7.20
2013,11,16,09,07,7.20
2013,11,16,09,08,7.20
2013,11,16,09,09,7.20
2013,11,16,09,10,7.20
2013,11,16,09,11,7.20
2013,11,16,09,12,7.20
2013,11,16,09,13,7.20
2013,11,16,09,14,7.30
2013,11,16,09,15,7.30
2013,11,16,09,16,7.30
2013,11,16,09,17,7.30
2013,11,16,09,18,7.30
2013,11,16,09,19,7.30
2013,11,16,09,20,7.30
2013,11,16,09,21,7.30
2013,11,16,09,22,7.30
2013,11,16,09,23,7.30
2013,11,16,09,24,7.30
2013,11,16,09,25,7.40
2013,11,16,09,26,7.40
2013,11,16,09,27,7.40
2013,11,16,09,28,7.40
2013,11,16,09,29,7.40
2013,11,16,09,30,7.40
2013,11,16,09,31,7.40
2013,11,16,09,32,7.40
2013,11,16,09,33,7.40
2013,11,16,09,34,7.40
2013,11,16,09,35,7.40
2013,11,16,09,36,7.40
2013,11,16,09,37,7.40
2013,11,16,09,38,7.40
2013,11,16,09,39,7.50
2013,11,16,09,40,7.50
2013,11,16,09,41,7.50
2013,11,16,09,42,7.50
2013,11,16,09,43,7.50
2013,11,16,09,44,7.50
2013,11,16,09,45,7.50
2013,11,16,09,46,7.50
2013,11,16,09,47,7.50
2013,11,16,09,48,7.50
2013,11,16,09,49,7.50
2013,11,16,09,50,7.50
2013,11,16,09,51,7.40
2013,11,16,09,52,7.40
2013,11,16,09,53,7.50
2013,11,16,09,54,7.50
2013,11,16,09,55,7.50
2013,11,16,09,56,7.50
2013,11,16,09,57,7.40
2013,11,16,09,58,7.40
2013,11,16,09,59,7.40
2013,11,16,10,00,7.50
2013,11,16,10,01,7.50
2013,11,16,10,02,7.50
2013,11,16,10,03,7.50
2013,11,16,10,04,7.50
2013,11,16,10,05,7.50
2013,11,16,10,06,7.50
2013,11,16,10,07,7.50
2013,11,16,10,08,7.50
2013,11,16,10,09,7.50
2013,11,16,10,10,7.50
2013,11,16,10,11,7.50
2013,11,16,10,12,7.50
2013,11,16,10,13,7.60
2013,11,16,10,14,7.60
2013,11,16,10,15,7.60
2013,11,16,10,16,7.60
2013,11,16,10,17,7.60
2013,11,16,10,18,7.60
2013,11,16,10,19,7.60
2013,11,16,10,20,7.60
2013,11,16,10,21,7.60
2013,11,16,10,22,7.60
2013,11,16,10,23,7.60
2013,11,16,10,24,7.60
2013,11,16,10,25,7.60
2013,11,16,10,26,7.60
2013,11,16,10,27,7.70
2013,11,16,10,28,7.70
2013,11,16,10,29,7.70
2013,11,16,10,30,7.70
2013,11,16,10,31,7.70
2013,11,16,10,32,7.70
2013,11,16,10,33,7.70
2013,11,16,10,34,7.70
2013,11,16,10,35,7.70
2013,11,16,10,36,7.70
2013,11,16,10,37,7.70
2013,11,16,10,38,7.70
2013,11,16,10,39,7.70
2013,11,16,10,40,7.70
2013,11,16,10,41,7.70
2013,11,16,10,42,7.70
2013,11,16,10,43,7.70
2013,11,16,10,44,7.70
2013,11,16,10,45,7.80
2013,11,16,10,46,7.70
2013,11,16,10,47,7.80
2013,11,16,10,48,7.80
2013,11,16,10,49,7.80
2013,11,16,10,50,7.80
2013,11,16,10,51,7.80
2013,11,16,10,52,7.80
2013,11,16,10,53,7.80
2013,11,16,10,54,7.90
2013,11,16,10,55,7.90
2013,11,16,10,56,7.90
2013,11,16,10,57,7.90
2013,11,16,10,58,7.90
2013,11,16,10,59,7.90
2013,11,16,11,00,7.90
2013,11,16,11,01,7.90
2013,11,16,11,02,7.90
2013,11,16,11,03,7.90
2013,11,16,11,04,7.90
2013,11,16,11,05,8.00
2013,11,16,11,06,8.00
2013,11,16,11,07,8.00
2013,11,16,11,08,8.00
2013,11,16,11,09,8.00
2013,11,16,11,10,8.00
2013,11,16,11,11,8.00
2013,11,16,11,12,8.00
2013,11,16,11,13,8.00
2013,11,16,11,14,7.90
2013,11,16,11,15,7.90
2013,11,16,11,16,7.90
2013,11,16,11,17,7.90
2013,11,16,11,18,7.90
2013,11,16,11,19,7.90
2013,11,16,11,20,7.90
2013,11,16,11,21,7.90
2013,11,16,11,22,7.90
2013,11,16,11,23,7.90
2013,11,16,11,24,7.90
2013,11,16,11,25,7.90
2013,11,16,11,26,7.90
2013,11,16,11,27,7.90
2013,11,16,11,28,7.90
2013,11,16,11,29,7.90
2013,11,16,11,30,7.90
2013,11,16,11,31,7.90
2013,11,16,11,32,7.90
2013,11,16,11,33,7.90
2013,11,16,11,34,7.90
2013,11,16,11,35,7.90
2013,11,16,11,36,7.90
2013,11,16,11,37,7.90
2013,11,16,11,38,7.90
2013,11,16,11,39,7.90
2013,11,16,11,40,8.00
2013,11,16,11,41,8.00
2013,11,16,11,42,8.00
2013,11,16,11,43,8.00
2013,11,16,11,44,8.00
2013,11,16,11,45,8.00
2013,11,16,11,46,8.00
2013,11,16,11,47,8.00
2013,11,16,11,48,8.10
2013,11,16,11,49,8.10
2013,11,16,11,50,8.00
2013,11,16,11,51,8.10
2013,11,16,11,52,8.10
2013,11,16,11,53,8.10
2013,11,16,11,54,8.10
2013,11,16,11,55,8.10
2013,11,16,11,56,8.10
2013,11,16,11,57,8.10
2013,11,16,11,58,8.10
2013,11,16,11,59,8.10
2013,11,16,12,00,8.10
2013,11,16,12,01,8.10
2013,11,16,12,02,8.10
2013,11,16,12,03,8.10
2013,11,16,12,04,8.10
2013,11,16,12,05,8.10
2013,11,16,12,06,8.20
2013,11,16,12,07,8.20
2013,11,16,12,08,8.20
2013,11,16,12,09,8.20
2013,11,16,12,10,8.20
2013,11,16,12,11,8.20
2013,11,16,12,12,8.20
2013,11,16,12,13,8.20
2013,11,16,12,14,8.20
2013,11,16,12,15,8.20
2013,11,16,12,16,8.20
2013,11,16,12,17,8.10
2013,11,16,12,18,8.10
2013,11,16,12,19,8.10
2013,11,16,12,20,8.10
2013,11,16,12,21,8.10
2013,11,16,12,22,8.10
2013,11,16,12,23,8.10
2013,11,16,12,24,8.10
2013,11,16,12,25,8.10
2013,11,16,12,26,8.10
2013,11,16,12,27,8.10
2013,11,16,12,28,8.10
2013,11,16,12,29,8.10
2013,11,16,12,30,8.10
2013,11,16,12,31,8.10
2013,11,16,12,32,8.10
2013,11,16,12,33,8.10
2013,11,16,12,34,8.10
2013,11,16,12,35,8.10
2013,11,16,12,36,8.10
2013,11,16,12,37,8.10
2013,11,16,12,38,8.10
2013,11,16,12,39,8.10
2013,11,16,12,40,8.10
2013,11,16,12,41,8.10
2013,11,16,12,42,8.10
2013,11,16,12,43,8.10
2013,11,16,12,44,8.10
2013,11,16,12,45,8.10
2013,11,16,12,46,8.00
2013,11,16,12,47,8.00
2013,11,16,12,48,8.00
2013,11,16,12,49,8.00
2013,11,16,12,50,8.00
2013,11,16,12,51,8.00
2013,11,16,12,52,7.90
2013,11,16,12,53,7.90
2013,11,16,12,54,7.90
2013,11,16,12,55,7.90
2013,11,16,12,56,7.90
2013,11,16,12,57,7.90
2013,11,16,12,58,7.80
2013,11,16,12,59,7.80
2013,11,16,13,00,7.80
2013,11,16,13,01,7.80
2013,11,16,13,02,7.80
2013,11,16,13,03,7.80
2013,11,16,13,04,7.80
2013,11,16,13,05,7.70
2013,11,16,13,06,7.70
2013,11,16,13,07,7.70
2013,11,16,13,08,7.70
2013,11,16,13,09,7.70
2013,11,16,13,10,7.70
2013,11,16,13,11,7.60
2013,11,16,13,12,7.60
2013,11,16,13,13,7.60
2013,11,16,13,14,7.60
2013,11,16,13,15,7.60
2013,11,16,13,16,7.60
2013,11,16,13,17,7.60
2013,11,16,13,18,7.60
2013,11,16,13,19,7.70
2013,11,16,13,20,7.70
2013,11,16,13,21,7.70
2013,11,16,13,22,7.70
2013,11,16,13,23,7.70
2013,11,16,13,24,7.70
2013,11,16,13,25,7.70
2013,11,16,13,26,7.70
2013,11,16,13,27,7.70
2013,11,16,13,28,7.70
2013,11,16,13,29,7.70
2013,11,16,13,30,7.70
2013,11,16,13,31,7.80
2013,11,16,13,32,7.80
2013,11,16,13,33,7.80
2013,11,16,13,34,7.80
2013,11,16,13,35,7.80
2013,11,16,13,36,7.80
2013,11,16,13,37,7.80
2013,11,16,13,38,7.80
2013,11,16,13,39,7.80
2013,11,16,13,40,7.90
2013,11,16,13,41,7.90
2013,11,16,13,42,7.90
2013,11,16,13,43,7.90
2013,11,16,13,44,7.90
2013,11,16,13,45,7.90
2013,11,16,13,46,7.90
2013,11,16,13,47,8.00
2013,11,16,13,48,8.00
2013,11,16,13,49,8.00
2013,11,16,13,50,8.00
2013,11,16,13,51,7.90
2013,11,16,13,52,7.90
2013,11,16,13,53,7.90
2013,11,16,13,54,7.90
2013,11,16,13,55,8.00
2013,11,16,13,56,8.00
2013,11,16,13,57,8.00
2013,11,16,13,58,8.00
2013,11,16,13,59,8.00
2013,11,16,14,00,8.00
2013,11,16,14,01,8.00
2013,11,16,14,02,8.00
2013,11,16,14,03,8.00
2013,11,16,14,04,8.00
2013,11,16,14,05,8.00
2013,11,16,14,06,8.00
2013,11,16,14,07,8.00
2013,11,16,14,08,8.00
2013,11,16,14,09,8.00
2013,11,16,14,10,8.00
2013,11,16,14,11,8.00
2013,11,16,14,12,8.00
2013,11,16,14,13,7.90
2013,11,16,14,14,7.90
2013,11,16,14,15,7.90
2013,11,16,14,16,7.90
2013,11,16,14,17,7.90
2013,11,16,14,18,7.90
2013,11,16,14,19,7.90
2013,11,16,14,20,7.90
2013,11,16,14,21,7.90
2013,11,16,14,22,7.90
2013,11,16,14,23,7.90
2013,11,16,14,24,7.90
2013,11,16,14,25,7.90
2013,11,16,14,26,7.90
2013,11,16,14,27,7.90
2013,11,16,14,28,7.90
2013,11,16,14,29,7.90
2013,11,16,14,30,7.90
2013,11,16,14,31,7.90
2013,11,16,14,32,7.90
2013,11,16,14,33,7.90
2013,11,16,14,34,7.90
2013,11,16,14,35,7.90
2013,11,16,14,36,7.90
2013,11,16,14,37,7.90
2013,11,16,14,38,7.90
2013,11,16,14,39,7.90
2013,11,16,14,40,7.90
2013,11,16,14,41,7.90
2013,11,16,14,42,7.90
2013,11,16,14,43,7.90
2013,11,16,14,44,7.90
2013,11,16,14,45,7.90
2013,11,16,14,46,7.90
2013,11,16,14,47,7.90
2013,11,16,14,48,7.80
2013,11,16,14,49,7.80
2013,11,16,14,50,7.80
2013,11,16,14,51,7.80
2013,11,16,14,52,7.80
2013,11,16,14,53,7.80
2013,11,16,14,54,7.80
2013,11,16,14,55,7.80
2013,11,16,14,56,7.80
2013,11,16,14,57,7.80
2013,11,16,14,58,7.80
2013,11,16,14,59,7.80
2013,11,16,15,00,7.80
2013,11,16,15,01,7.80
2013,11,16,15,02,7.80
2013,11,16,15,03,7.80
2013,11,16,15,04,7.80
2013,11,16,15,05,7.80
2013,11,16,15,06,7.80
2013,11,16,15,07,7.80
2013,11,16,15,08,7.80
2013,11,16,15,09,7.80
2013,11,16,15,10,7.80
2013,11,16,15,11,7.80
2013,11,16,15,12,7.80
2013,11,16,15,13,7.80
2013,11,16,15,14,7.80
2013,11,16,15,15,7.80
2013,11,16,15,16,7.80
2013,11,16,15,17,7.80
2013,11,16,15,18,7.80
2013,11,16,15,19,7.80
2013,11,16,15,20,7.80
2013,11,16,15,21,7.80
2013,11,16,15,22,7.80
2013,11,16,15,23,7.80
2013,11,16,15,24,7.80
2013,11,16,15,25,7.80
2013,11,16,15,26,7.80
2013,11,16,15,27,7.80
2013,11,16,15,28,7.80
2013,11,16,15,29,7.80
2013,11,16,15,30,7.70
2013,11,16,15,31,7.70
2013,11,16,15,32,7.80
2013,11,16,15,33,7.70
2013,11,16,15,34,7.80
2013,11,16,15,35,7.70
2013,11,16,15,36,7.70
2013,11,16,15,37,7.70
2013,11,16,15,38,7.70
2013,11,16,15,39,7.70
2013,11,16,15,40,7.70
2013,11,16,15,41,7.70
2013,11,16,15,42,7.70
2013,11,16,15,43,7.70
2013,11,16,15,44,7.70
2013,11,16,15,45,7.70
2013,11,16,15,46,7.70
2013,11,16,15,47,7.70
2013,11,16,15,48,7.70
2013,11,16,15,49,7.70
2013,11,16,15,50,7.70
2013,11,16,15,51,7.70
2013,11,16,15,52,7.70
2013,11,16,15,53,7.70
2013,11,16,15,54,7.70
2013,11,16,15,55,7.70
2013,11,16,15,56,7.70
2013,11,16,15,57,7.70
2013,11,16,15,58,7.70
